Other Public Products
Issued by NWS Charleston, SC

Current Version | Previous Version | Graphics & Text | Print | Product List | Glossary On
Versions: 1 2 3 4 5 6 7 8 9 10 11 12 13 14 15 16 17 18 19 20 21 22 23 24 25 26 27 28 29 30 31 32 33 34 35 36 37 38 39 40 41 42 43 44 45 46 47 48 49 50
298
FPUS82 KCHS 272112
OPUCHS

TEST...KCHS/KSAV Gateway Observations...TEST
National Weather Service Charleston SC
500 PM EDT SAT MAY 27 2017

NOTE: "fair" indicates few or no clouds below 12,000 feet with no
significant weather and/or obstructions to visibility.

SCZ050-WAZ558-NCZ071-TXZ119-213-PAZ071-DCZ001-FLZ074-172-MI076-
NYZ176-178-MAZ016-IL014-TNZ027-NJZ106-GAZ044-MD014-272200-

...Gateway Observations for Charleston International...

CITY           SKY/WX    TMP DP  RH WIND       PRES   REMARKS
Chas Airport   MOSUNNY   91  60  35 W12       29.93F HX  90
Seattle        MOSUNNY   79  50  36 NW10      30.08F
Charlotte      PTSUNNY   86  65  49 SW8       29.92R
Dallas DFW     PTSUNNY   90  76  63 S17G25    29.77F HAZE    HX 101
Dallas Love    CLOUDY    89  74  60 S15G26    29.79F HAZE    HX  98
Philladelphia  CLOUDY    71  55  56 SW12      29.90R
Wash National  LGT RAIN  70  64  81 E7        29.89R
Baltimore      CLOUDY    67  58  72 E10       29.89S
Miami          MOSUNNY   91  75  59 SE13G21   30.02S HX 101
Detroit        CLOUDY    72  57  59 S9        29.91S
Newark         CLOUDY    73  54  51 SW8       29.86S
Laguardia      CLOUDY    70  55  59 S9        29.86S
J F K          CLOUDY    66  58  75 S13       29.88S
Boston Logan   PTSUNNY   59  49  69 E13       29.89S
Ft. Lauderdale PTSUNNY   87  77  72 SE9       30.02S HX  99
Chicago O`Hare CLOUDY    77  58  51 E14       29.85F
Chicago Midway CLOUDY    73  57  57 E10       29.86F
Houston Bush   PTSUNNY   93  73  52 S15G25    29.89F HX 102
Houston Hobby  PTSUNNY   89  74  60 S15       29.89F HX  98
Nashville      LGT RAIN  79  72  79 CALM      29.89S
Atlanta        PTSUNNY   82  67  60 SW14      29.99F

$$

GAZ044-118-TXZ119-213-NCZ071-DCZ001-MDZ014-506-PAZ021-071-NJZ106-
NYZ176-178-MAZ106-OHZ011-021-055-MIZ076-KYZ091-ILZ014-INZ047-
MNZ060-ONZ431-272200-

...Gateway Observations for Savannah International...

CITY           SKY/WX    TMP DP  RH WIND       PRES   REMARKS
Savannah Arpt  SUNNY     96  59  29 W12       29.97F HX  95
Atlanta        PTSUNNY   82  67  60 SW14      29.99F
Charlotte      PTSUNNY   86  65  49 SW8       29.92R
Dallas DFW     PTSUNNY   90  76  63 S17G25    29.77F HAZE    HX 101
Houston Bush   PTSUNNY   93  73  52 S15G25    29.89F HX 102
Wash National  LGT RAIN  70  64  81 E7        29.89R
Wash Dulles    CLOUDY    68  62  81 NE7       29.89S
Baltimore      CLOUDY    67  58  72 E10       29.89S
Philadelphia   CLOUDY    71  55  56 SW12      29.90R
Newark         CLOUDY    73  54  51 SW8       29.86S
Laguardia      CLOUDY    70  55  59 S9        29.86S
J F K          CLOUDY    66  58  75 S13       29.88S
Boston         PTSUNNY   59  49  69 E13       29.89S
Pittsburg      PTSUNNY   71  61  70 VRB5      29.88F
Akron          PTSUNNY   74  59  59 CALM      29.89S
Cleveland      MOSUNNY   72  52  49 N14       29.91S
Cincinnati     CLOUDY    83  68  60 W9        29.84F
Columbus       SUNNY     79  67  64 W6        29.83F HAZE
Detroit        CLOUDY    72  57  59 S9        29.91S
Chicago O`Hare CLOUDY    77  58  51 E14       29.85F
Minneapolis    CLOUDY    69  50  50 S12       29.88F
Indianapolis   MOSUNNY   78  63  59 NW3       29.85F
Toronto Canada PTSUNNY   66  55  68 SE10      29.89S

$$




USA.gov is the U.S. government's official web portal to all federal, state and local government web resources and services.